Location: ????? ?????
(38.2753°N, 23.5876°E)
Time: 00:13:16
(UTC+00:00)

Daily predictions for brighter satellites

Satellite Brightness Start Highest point End
(mag) Time Altitude Azimuth Time Altitude Azimuth Time Altitude Azimuth
CZ-2C R/B 4.5 01:15:18 10° NE 01:17:30 22° NE 01:17:30 22° NE
ATLAS 2AS CENTAUR R/B 4.4 01:22:05 23° NNW 01:22:05 23° NNW 01:26:10 10° NNE
ATLAS 3B R/B 4.1 01:27:32 30° SSE 01:27:32 30° SSE 01:30:54 10° SSE
BREEZE-M DEB (TANK) 4.2 01:33:36 58° E 01:33:36 58° E 01:43:59 10° NE
CZ-2C R/B 4.2 01:35:22 10° N 01:38:52 39° N 01:38:52 39° N
Cosmos 1867 4.0 01:52:32 47° N 01:53:47 58° ENE 01:59:09 10° SE
GP-B 3.9 02:00:52 50° NE 02:00:52 50° NE 02:04:37 10° N
NOSS 3-1 (A) 4.0 01:55:42 16° NW 02:02:22 81° WSW 02:11:30 10° SSE
Meteor 1-10 Rocket 4.1 02:02:12 74° SSE 02:02:37 80° E 02:08:11 10° NNE
Sich 1 3.8 02:00:02 10° N 02:04:15 51° E 02:04:46 48° ESE
USA 281 4.4 02:03:05 10° N 02:07:16 26° NW 02:07:16 26° NW
BlueWalker 3 3.1 02:13:43 41° NE 02:13:43 41° NE 02:17:05 10° ESE
IRS-1D 4.0 02:09:38 10° N 02:13:40 46° NNW 02:13:40 46° NNW
Cosmos 2297 Rocket 2.6 02:13:12 31° S 02:15:49 61° ESE 02:21:23 10° NNE
Envisat 2.8 02:12:15 10° N 02:17:21 81° WNW 02:17:38 77° WSW
Nadezhda 2 Rocket 4.5 02:23:50 43° SW 02:25:55 64° W 02:32:19 10° N
Cosmos 2237 Rocket 3.4 02:24:31 10° N 02:29:56 43° ENE 02:35:16 10° SE
METEOR-M 4.5 02:27:49 10° N 02:32:41 44° WNW 02:32:41 44° WNW
Cosmos 1536 3.7 02:29:43 10° N 02:39:26 - S 02:32:05 36° NNW
OAO 2 Rocket 4.5 02:36:29 27° SSW 02:36:29 27° SSW 02:40:03 10° SE
Delta 2 Rocket 4.3 02:36:56 38° SSW 02:37:05 39° SSW 02:41:49 10° SE
YAOGAN 11 4.1 02:36:42 10° S 02:41:08 58° W 02:45:32 10° NNW
Okean 1 3.0 02:40:42 55° SSW 02:41:29 84° W 02:45:20 10° N
Cosmos 2322 4.0 02:43:23 39° W 02:44:05 41° WSW 02:49:20 10° S
SL-08 R/B 4.5 02:41:15 24° SSW 02:44:53 56° W 02:50:52 10° N
Nadezhda 1 Rocket 4.0 02:43:27 10° N 02:49:45 87° E 02:55:54 10° S
COBE Rocket 4.0 02:45:46 10° N 02:50:29 52° WNW 02:52:53 28° SW
Cosmos 1726 3.9 02:48:27 10° NNE 02:51:33 31° ENE 02:54:38 10° SE
NOSS 0 Rocket 3.8 02:45:21 10° NNW 02:51:36 77° WSW 02:57:49 10° SSE
H-2A R/B 3.0 02:48:37 10° NNE 02:52:04 59° E 02:55:28 10° S
IRS-1C 4.5 02:47:05 10° NNE 02:52:24 66° ESE 02:57:40 10° S
COSMOS 2428 2.9 02:47:19 10° NW 02:52:42 45° WSW 02:58:05 10° S
ERS-2 3.8 02:51:46 10° NE 02:54:34 29° E 02:57:22 10° SSE
USA 215 3.3 02:48:41 10° SE 02:55:14 81° NE 03:01:49 10° NW
CBERS-1 4.2 02:50:24 10° N 02:55:21 51° WNW 02:58:27 22° SW
Cosmos 1151 Rocket 3.3 02:54:47 38° WSW 02:55:47 45° W 03:00:00 10° N
CZ-2C R/B 3.5 02:53:41 10° NNW 02:56:50 23° NW 02:56:50 23° NW
Cosmos 2227 Rocket 2.2 02:56:55 10° SSW 03:02:35 84° ESE 03:08:17 10° NNE
Meteor 2-20 Rocket 4.5 02:58:24 10° N 03:04:38 85° E 03:10:35 10° S
Cosmos 2263 Rocket 4.4 03:01:23 10° SSE 03:05:56 26° ESE 03:10:29 10° NE
Cosmos 1328 Rocket 3.4 03:02:17 10° S 03:06:41 77° W 03:11:05 10° N
Cosmos 44 Rocket 4.0 03:05:11 27° W 03:07:08 38° NW 03:11:56 10° NNE
ARIANE 5 R/B 2.5 03:03:38 10° NNE 03:08:40 84° ESE 03:13:38 10° SSW
COSMO-SKYMED 1 4.5 03:04:48 10° SE 03:08:41 33° ENE 03:12:34 10° N
Meteor 1-27 Rocket 4.1 03:04:34 13° SW 03:09:15 42° WNW 03:14:41 10° N
Cosmos 1733 4.2 03:06:49 10° N 03:10:23 46° E 03:13:55 10° SSE
Cosmos 1666 Rocket 3.4 03:06:07 10° N 03:10:28 74° W 03:14:46 10° S
DMSP B5D2-2 4.0 03:06:53 10° S 03:12:03 62° WSW 03:17:18 10° NNW
Meteor 2-20 4.5 03:06:50 10° NNW 03:12:50 57° W 03:18:48 10° S
ATLAS 3B R/B 4.4 03:14:59 15° WSW 03:14:59 15° WSW 03:17:15 10° SW
Meteor 1-19 Rocket 4.4 03:13:32 10° SSW 03:18:51 45° WNW 03:24:06 10° N
Cosmos 1709 Rocket 4.0 03:13:17 10° SSW 03:19:38 74° W 03:26:02 10° N
Helios 1A 2.9 03:17:05 10° S 03:21:07 61° WSW 03:25:10 10° NNW
CZ-2D R/B 3.6 03:18:26 10° NNE 03:22:48 84° ESE 03:27:09 10° SSW
Cosmos 1269 Rocket 3.9 03:21:12 10° NNW 03:26:29 72° WSW 03:31:41 10° S
IRS-P3 4.1 03:21:13 10° N 03:26:33 74° WNW 03:31:51 10° SSW
Meteor 2-4 Rocket 3.8 03:23:23 10° S 03:29:18 81° W 03:35:10 10° N
Cosmos 614 Rocket 4.1 03:27:22 10° NNW 03:32:20 50° WSW 03:37:20 10° S
Cosmos 1980 3.9 03:30:24 10° NNW 03:35:50 49° WSW 03:41:15 10° S
Cosmos 1805 3.5 03:33:00 10° N 03:36:46 70° E 03:40:32 10° SSE
USA 229 DEB 4.4 03:29:42 10° NW 03:36:50 43° WSW 03:44:22 10° S
USA 229 4.4 03:29:47 10° NW 03:36:55 44° WSW 03:44:27 10° S
Cosmos 1633 Rocket 3.4 03:34:56 10° NNW 03:39:05 41° W 03:43:13 10° SSW
Meteor 1-18 Rocket 4.3 03:34:17 10° SSW 03:40:08 70° W 03:45:56 10° N
Cosmos 1484 Rocket 4.3 03:40:19 10° NNW 03:42:33 16° WNW 03:44:38 11° WSW
ATLAS CENTAUR R/B 3.2 03:39:35 10° N 03:42:39 26° NE 03:45:44 10° ESE
H-2A R/B 2.1 03:39:07 10° N 03:44:32 69° WNW 03:49:50 10° SSW
Aureole 3 4.0 03:46:07 10° SSE 03:49:01 43° E 03:51:51 10° NNE
NOSS 3-3 (A) 4.2 03:46:12 10° SSW 03:51:25 65° ESE 03:57:23 10° NE
NOSS 3-3 (C) 4.2 03:46:14 10° SSW 03:51:26 64° ESE 03:57:23 10° NE
BlueWalker 3 3.3 03:48:37 10° WNW 03:51:38 22° SW 03:54:41 10° S
PSLV R/B 3.5 03:51:57 10° NNE 03:56:06 87° ESE 04:00:14 10° SSW
SKYMED 2 3.5 03:52:19 10° S 03:56:37 69° WSW 04:00:58 10° NNW
Cosmos 2251 Rocket 4.4 03:53:00 10° N 03:58:08 54° ENE 04:03:15 10° SSE
SAR-Lupe-2 3.7 03:54:43 10° NNE 03:58:18 82° ESE 04:01:52 10° S
CZ-2C R/B 4.1 03:55:28 10° NNE 03:59:03 44° E 04:02:33 10° S
Cosmos 2074 Rocket 4.2 03:54:04 10° S 04:00:14 80° E 04:06:28 10° N
Cosmos 2297 Rocket 3.6 03:56:18 10° W 04:00:17 19° NW 04:04:18 10° N
